MIDVIL-WX Weather Reports


Display with metric or nautical units.
time (UTC)temp
F
wind
direction
speed
MPH
gust
MPH
rain 1hr
in
rain 24hr
in
rain mn
in
humidity
%
barometer
mb
20260502233038 46 274 6.0 0.0 0.00 0.00 0.00 41 990.3
20260502231526 46 275 8.0 0.0 0.00 0.00 0.00 41 990.3
20260502230052 46 276 9.0 0.0 0.00 0.00 0.00 41 990.3
20260502224525 47 275 10.0 0.0 0.00 0.00 0.00 42 990.7
20260502223044 47 276 10.0 0.0 0.00 0.00 0.00 40 991.4
20260502221526 47 276 11.0 0.0 0.00 0.00 0.00 40 991.4
20260502220050 47 275 11.0 0.0 0.00 0.00 0.00 40 991.4
20260502214526 47 277 12.0 0.0 0.00 0.00 0.00 42 991.5
20260502213044 47 270 10.0 0.0 0.00 0.00 0.00 43 991.2
20260502211526 47 266 10.0 0.0 0.00 0.00 0.00 43 991.1
20260502210054 47 267 11.0 0.0 0.00 0.00 0.00 43 991.1
20260502204525 47 263 11.0 0.0 0.00 0.00 0.00 38 991.6
20260502203043 48 264 11.0 0.0 0.00 0.00 0.00 37 992.0
20260502201525 47 269 11.0 0.0 0.00 0.00 0.00 37 992.0
20260502200050 48 274 11.0 0.0 0.00 0.00 0.00 37 992.0
20260502194525 47 279 11.0 0.0 0.00 0.00 0.00 39 992.3
20260502193039 47 279 11.0 0.0 0.00 0.00 0.00 39 992.3
20260502191526 47 276 12.0 0.0 0.00 0.00 0.00 39 992.3
20260502190051 47 275 11.0 0.0 0.00 0.00 0.00 39 992.3
20260502184525 46 278 11.0 0.0 0.00 0.00 0.00 43 992.1
20260502183045 46 285 11.0 0.0 0.00 0.00 0.00 44 992.1
20260502181525 46 283 11.0 0.0 0.00 0.00 0.00 44 992.2
20260502163045 45 283 8.0 0.0 0.00 0.00 0.00 43 991.8
20260502161525 45 283 8.0 0.0 0.00 0.00 0.00 43 991.8
20260502151526 43 291 6.0 0.0 0.00 0.00 0.00 50 992.0
20260502123043 35 326 4.0 0.0 0.00 0.00 0.00 81 992.4
20260502121526 34 331 5.0 0.0 0.00 0.00 0.00 81 992.4
20260502114525 33 317 3.0 0.0 0.00 0.00 0.00 84 992.1
20260502113047 32 310 1.0 0.0 0.00 0.00 0.00 85 992.1
20260502111526 32 301 1.0 0.0 0.00 0.00 0.00 85 992.1
20260502110053 31 306 1.0 0.0 0.00 0.00 0.00 85 992.1
20260502104525 31 304 1.0 0.0 0.00 0.00 0.00 83 991.8
20260502103044 31 297 1.0 0.0 0.00 0.00 0.00 87 992.2
20260502101525 31 307 1.0 0.0 0.00 0.00 0.00 87 992.2
20260502091525 32 315 2.0 0.0 0.00 0.00 0.00 87 991.6
20260502071526 32 313 3.0 0.0 0.00 0.00 0.00 77 990.9
20260502070050 32 319 4.0 0.0 0.00 0.00 0.00 77 990.9
20260502064525 32 317 4.0 0.0 0.00 0.00 0.00 75 992.0
20260502063045 32 313 4.0 0.0 0.00 0.00 0.00 75 991.9
20260502061525 33 311 5.0 0.0 0.00 0.00 0.00 75 991.9
20260502060059 33 313 5.0 0.0 0.00 0.00 0.00 75 991.9
20260502054526 33 318 5.0 0.0 0.00 0.00 0.00 74 991.1
20260502053044 33 313 5.0 0.0 0.00 0.00 0.00 75 991.6
20260502051525 33 315 6.0 0.0 0.00 0.00 0.00 75 991.6
20260502050053 34 322 6.0 0.0 0.00 0.00 0.00 75 991.6
20260502044526 34 322 6.0 0.0 0.00 0.00 0.00 69 991.1
20260502043043 34 326 5.0 0.0 0.00 0.00 0.00 73 991.3
20260502041525 34 328 6.0 0.0 0.00 0.00 0.00 73 991.2
20260502040052 34 324 7.0 0.0 0.00 0.00 0.00 73 991.2
20260502034525 35 321 7.0 0.0 0.00 0.00 0.00 65 990.6
20260502033045 35 331 5.0 0.0 0.00 0.00 0.00 69 990.1
20260502031525 35 322 6.0 0.0 0.00 0.00 0.00 69 990.1
20260502030052 35 322 6.0 0.0 0.00 0.00 0.00 69 990.1
20260502024525 36 317 7.0 0.0 0.00 0.00 0.00 62 989.6
20260502023043 36 315 8.0 0.0 0.00 0.00 0.00 67 990.6
20260502021525 36 307 8.0 0.0 0.00 0.00 0.00 67 990.6
20260502020049 37 301 9.0 0.0 0.00 0.00 0.00 67 990.6
20260502014524 37 294 9.0 0.0 0.00 0.00 0.00 63 990.8
20260502013041 38 289 9.0 0.0 0.00 0.00 0.00 63 990.8
20260502011524 37 284 8.0 0.0 0.00 0.00 0.00 63 990.7
20260502010045 37 287 8.0 0.0 0.00 0.00 0.00 63 990.7
20260502004524 38 288 8.0 0.0 0.00 0.00 0.00 56 991.1
20260502003042 39 294 9.0 0.0 0.00 0.00 0.00 59 991.6
20260502001525 40 294 9.0 0.0 0.00 0.00 0.00 59 991.6
20260502000055 41 298 10.0 0.0 0.00 0.00 0.00 59 991.6
20260501234525 42 295 10.0 0.0 0.00 0.00 0.00 55 989.9